Location: Home
(42.5358°N, 72.7383°W)
Time: 14:43:10
(UTC-05:00)

Vanguard 1 - Pass Details

Date: 30 November 2021
Orbit: 652 x 3830 km, 34.2° (Epoch: 19 January)

Event Time Altitude Azimuth Distance (km) Brightness Sun altitude
Rises 03:13:45 0° 262° (W) 7,964 - -41.1°
Reaches altitude 10° 03:19:20 10° 260° (W) 6,918 - -40.0°
Exits shadow 03:35:53 52° 237° (WSW) 3,864 12.5 -37.0°
Maximum altitude 03:41:31 65° 186° (S) 3,232 12.4 -36.0°
Drops below altitude 10° 03:55:13 10° 108° (ESE) 4,546 14.2 -33.5°
Sets 03:58:03 0° 105° (ESE) 5,213 14.8 -32.9°
